Total_Precipitation_Accumulation
0.00 0.03 0.12 0.36 1.09 1.48 1.35 0.71 0.50 0.37 0.35 0.44 0.44 0.40 0.45 0.60 0.78 1.18 0.61 0.19 0.06 0.03 0.05 0.11 0.14 0.11 0.12 0.13 0.14 0.17 0.17 0.16 0.15 0.13 0.12 0.09 0.08 0.08 0.09 0.12 0.13 0.15 0.17 0.16 0.14 0.13 0.13 0.13 0.12
0.00 0.03 0.15 0.52 1.35 1.90 1.42 0.66 0.40 0.27 0.35 0.51 0.59 0.53 0.42 0.45 0.34 0.25 0.26 0.34 0.10 0.03 0.03 0.05 0.12 0.12 0.11 0.11 0.13 0.15 0.16 0.15 0.14 0.13 0.12 0.11 0.12 0.12 0.12 0.13 0.15 0.17 0.17 0.16 0.15 0.12 0.12 0.11 0.11
0.01 0.06 0.21 0.59 0.98 1.20 0.99 0.53 0.29 0.25 0.34 0.54 0.60 0.45 0.38 0.47 0.33 0.19 0.18 0.22 0.11 0.07 0.05 0.05 0.09 0.11 0.12 0.11 0.13 0.14 0.15 0.15 0.15 0.14 0.13 0.13 0.14 0.14 0.16 0.17 0.20 0.19 0.17 0.16 0.15 0.13 0.10 0.10 0.11
0.02 0.09 0.25 0.43 0.50 0.46 0.40 0.32 0.27 0.28 0.37 0.41 0.50 0.49 0.35 0.37 0.30 0.20 0.19 0.19 0.14 0.11 0.09 0.10 0.12 0.12 0.12 0.11 0.11 0.13 0.13 0.13 0.14 0.15 0.15 0.15 0.15 0.17 0.20 0.22 0.21 0.20 0.18 0.14 0.14 0.12 0.09 0.10 0.12
0.02 0.12 0.28 0.35 0.28 0.28 0.30 0.31 0.32 0.35 0.41 0.50 0.61 0.67 0.57 0.35 0.27 0.33 0.37 0.33 0.25 0.18 0.15 0.16 0.18 0.18 0.16 0.14 0.14 0.15 0.14 0.14 0.15 0.17 0.17 0.16 0.18 0.20 0.21 0.22 0.21 0.21 0.18 0.14 0.14 0.16 0.13 0.15 0.18
0.02 0.10 0.18 0.20 0.17 0.20 0.27 0.29 0.30 0.37 0.48 0.67 0.70 0.67 0.62 0.46 0.41 0.44 0.43 0.51 0.50 0.31 0.24 0.20 0.24 0.25 0.21 0.20 0.20 0.19 0.17 0.18 0.17 0.17 0.17 0.17 0.19 0.20 0.19 0.21 0.23 0.22 0.20 0.16 0.14 0.14 0.16 0.21 0.23
0.02 0.08 0.11 0.13 0.12 0.14 0.18 0.27 0.38 0.40 0.50 0.66 0.57 0.57 0.72 0.71 0.62 0.56 0.50 0.54 0.46 0.37 0.36 0.31 0.25 0.24 0.25 0.28 0.29 0.27 0.23 0.24 0.22 0.18 0.17 0.17 0.20 0.21 0.21 0.22 0.27 0.25 0.22 0.22 0.21 0.17 0.16 0.18 0.21
0.01 0.04 0.05 0.08 0.07 0.12 0.12 0.18 0.32 0.45 0.50 0.50 0.51 0.72 1.04 0.88 0.58 0.56 0.60 0.59 0.56 0.55 0.50 0.48 0.42 0.37 0.30 0.29 0.33 0.34 0.31 0.30 0.26 0.23 0.21 0.23 0.26 0.27 0.28 0.26 0.31 0.33 0.30 0.30 0.31 0.27 0.24 0.26 0.30
0.01 0.03 0.04 0.04 0.04 0.08 0.11 0.17 0.26 0.39 0.43 0.52 0.66 0.76 0.82 0.67 0.52 0.63 0.77 0.82 0.89 0.81 0.70 0.60 0.54 0.48 0.40 0.31 0.30 0.35 0.36 0.36 0.32 0.35 0.34 0.38 0.51 0.61 0.63 0.60 0.64 0.62 0.59 0.56 0.54 0.51 0.48 0.43 0.36
0.01 0.03 0.04 0.02 0.03 0.05 0.08 0.17 0.33 0.42 0.51 0.77 1.12 1.18 0.87 0.72 0.67 0.76 0.97 1.04 1.27 1.05 0.77 0.69 0.57 0.51 0.42 0.34 0.42 0.50 0.52 0.54 0.52 0.64 0.69 0.86 1.04 1.05 0.83 0.99 1.08 1.04 1.08 0.97 0.93 1.10 0.93 0.72 0.63
0.00 0.01 0.01 0.02 0.01 0.03 0.08 0.14 0.22 0.38 0.73 1.20 1.33 1.16 0.91 0.98 0.99 0.98 1.20 1.26 1.16 1.05 1.08 1.03 0.84 0.72 0.65 0.68 0.60 0.65 0.76 0.91 0.89 0.89 1.03 1.29 1.21 1.04 0.94 1.03 1.33 1.48 1.55 1.48 1.54 1.63 1.28 1.26 1.43
0.00 0.00 0.00 0.01 0.01 0.03 0.04 0.07 0.14 0.38 0.87 1.03 1.00 0.93 0.89 1.08 1.11 1.17 1.45 1.53 1.57 1.41 1.59 1.71 1.41 1.31 1.17 1.02 0.90 0.81 0.82 1.00 1.15 1.32 1.37 1.53 1.59 1.49 1.34 1.35 1.52 1.69 1.84 2.17 2.11 2.00 1.84 1.79 1.71
0.00 0.00 0.00 0.00 0.02 0.06 0.04 0.08 0.25 0.57 0.78 0.68 0.58 0.81 0.88 1.15 1.42 1.63 1.80 1.72 1.97 2.03 2.17 2.39 1.99 1.83 1.72 1.69 1.51 1.23 1.25 1.32 1.42 1.64 1.75 1.84 2.01 2.02 1.95 1.86 1.78 1.64 1.78 2.12 2.32 2.21 2.24 2.16 2.01
0.00 0.00 0.00 0.01 0.02 0.04 0.07 0.16 0.36 0.63 0.57 0.54 0.69 1.09 1.30 1.23 1.53 1.92 2.04 2.10 2.42 2.58 2.67 2.78 2.62 2.56 2.40 2.18 2.13 1.99 1.66 1.65 1.63 1.71 1.72 1.91 2.14 2.40 2.48 2.37 2.20 1.89 1.81 1.90 2.22 2.33 2.47 2.37 2.24
0.00 0.01 0.04 0.06 0.07 0.06 0.09 0.33 0.49 0.60 0.48 0.55 0.80 1.14 1.48 1.40 1.55 1.82 2.02 2.48 3.15 3.47 3.31 3.28 3.22 3.38 3.20 2.81 2.50 2.22 2.04 1.98 2.02 2.03 1.96 2.09 2.32 2.52 2.53 2.33 1.98 1.76 1.80 1.90 1.85 1.92 2.22 2.03 1.89
0.01 0.04 0.14 0.16 0.11 0.10 0.16 0.56 0.70 0.65 0.75 0.85 1.05 1.23 1.50 1.51 1.54 1.74 2.20 2.96 3.75 4.24 4.10 3.87 3.45 3.61 3.60 3.33 3.07 2.75 2.46 2.43 2.28 2.07 1.96 1.98 2.19 2.16 2.21 1.87 1.49 1.54 1.74 1.80 1.82 1.79 1.91 1.90 1.96
0.03 0.07 0.14 0.22 0.15 0.13 0.22 0.80 0.84 0.60 0.84 1.09 1.04 1.20 1.42 1.55 1.64 1.75 2.33 3.12 3.81 4.48 4.65 4.63 4.47 4.12 3.89 3.69 3.49 3.27 3.05 2.66 2.24 2.06 1.93 1.77 1.66 1.62 1.71 1.47 1.36 1.41 1.55 1.61 1.56 1.75 1.88 1.81 1.87
0.06 0.09 0.15 0.22 0.17 0.16 0.28 0.61 0.71 0.71 0.85 1.00 1.00 1.04 1.16 1.41 1.74 1.86 2.21 2.87 3.61 4.35 4.84 5.04 5.01 4.61 4.13 3.66 3.25 3.12 2.93 2.60 2.32 2.08 1.84 1.54 1.38 1.33 1.50 1.39 1.26 1.35 1.46 1.48 1.62 1.76 1.84 1.63 1.59
0.06 0.09 0.18 0.23 0.17 0.18 0.33 0.51 0.65 0.74 0.96 1.10 1.09 1.05 1.08 1.37 1.78 1.98 2.26 2.66 3.39 4.05 4.66 4.76 4.94 4.39 3.71 3.16 2.76 2.59 2.35 2.06 2.00 1.87 1.68 1.55 1.38 1.32 1.45 1.31 1.23 1.20 1.27 1.26 1.37 1.48 1.51 1.27 1.45
0.09 0.12 0.20 0.22 0.15 0.16 0.33 0.60 0.78 0.86 0.83 0.90 0.92 0.94 0.98 1.38 1.80 2.19 2.72 3.05 3.05 3.51 4.16 4.17 3.80 3.49 3.04 2.56 2.35 2.18 2.07 1.82 1.63 1.45 1.34 1.21 1.12 1.13 1.17 1.16 1.03 1.02 1.10 1.07 1.14 1.28 1.29 1.14 1.35
0.12 0.14 0.18 0.16 0.15 0.21 0.39 0.74 1.02 0.96 0.69 0.63 0.68 0.72 0.86 1.21 1.63 2.04 2.53 2.92 2.86 3.16 3.25 2.82 2.51 2.47 2.38 2.12 1.99 1.94 1.88 1.71 1.40 1.12 0.98 0.92 0.88 0.85 0.83 0.84 0.86 0.92 0.88 0.93 1.01 1.16 1.31 1.19 1.14
0.08 0.08 0.07 0.07 0.13 0.28 0.42 0.93 1.31 1.11 0.82 0.66 0.64 0.74 0.81 0.91 1.09 1.38 1.66 2.07 2.31 2.36 2.23 2.06 1.95 1.91 2.03 1.99 1.78 1.63 1.35 1.22 1.04 0.86 0.83 0.84 0.77 0.71 0.65 0.65 0.76 0.83 0.85 0.95 0.84 0.90 1.09 1.19 1.05
0.05 0.04 0.05 0.08 0.12 0.27 0.47 0.79 1.17 1.16 1.10 0.93 0.76 0.75 0.67 0.64 0.73 0.89 0.98 1.21 1.49 1.65 1.65 1.54 1.74 1.82 1.83 1.79 1.72 1.65 1.39 1.18 1.05 0.99 1.00 0.92 0.83 0.72 0.63 0.60 0.62 0.71 0.81 0.88 0.87 0.91 0.92 0.98 0.95
0.04 0.05 0.12 0.25 0.37 0.69 0.68 0.72 1.05 1.01 0.96 0.93 0.73 0.58 0.48 0.42 0.53 0.69 0.71 0.77 0.91 1.00 1.07 1.14 1.35 1.54 1.58 1.54 1.54 1.54 1.42 1.26 1.09 0.99 0.93 0.83 0.78 0.71 0.63 0.61 0.64 0.63 0.65 0.70 0.76 0.80 0.82 0.87 0.89
0.05 0.09 0.32 0.69 1.00 1.16 0.72 0.69 0.88 0.76 0.77 0.82 0.60 0.36 0.30 0.32 0.37 0.47 0.49 0.50 0.57 0.62 0.70 0.79 0.96 1.11 1.22 1.27 1.29 1.31 1.40 1.26 1.05 0.86 0.83 0.75 0.65 0.61 0.60 0.58 0.67 0.71 0.71 0.70 0.71 0.74 0.81 0.87 0.92
0.06 0.07 0.19 0.34 0.49 0.69 0.73 1.08 1.01 0.63 0.59 0.50 0.30 0.18 0.18 0.26 0.26 0.28 0.30 0.33 0.38 0.38 0.47 0.56 0.65 0.75 0.86 1.04 1.18 1.10 1.17 1.06 0.92 0.95 0.88 0.75 0.60 0.60 0.69 0.70 0.70 0.72 0.75 0.75 0.85 0.84 0.88 0.93 0.94
0.05 0.05 0.06 0.10 0.15 0.43 0.81 1.16 0.93 0.50 0.45 0.30 0.19 0.13 0.14 0.15 0.18 0.18 0.19 0.18 0.23 0.27 0.32 0.42 0.55 0.68 0.72 0.79 0.96 1.03 1.00 0.96 0.95 0.97 0.93 0.81 0.71 0.61 0.64 0.68 0.74 0.74 0.76 0.80 0.90 0.90 0.95 1.02 1.02
0.06 0.06 0.06 0.07 0.15 0.33 0.66 1.01 1.03 0.72 0.51 0.31 0.20 0.17 0.23 0.18 0.21 0.18 0.14 0.14 0.19 0.24 0.29 0.40 0.51 0.66 0.78 0.78 0.77 0.82 0.96 0.99 1.04 1.01 0.86 0.79 0.74 0.69 0.68 0.64 0.69 0.71 0.73 0.80 0.94 0.96 1.04 1.15 1.18
0.08 0.08 0.09 0.10 0.12 0.21 0.49 0.72 0.62 0.58 0.40 0.27 0.24 0.27 0.21 0.17 0.19 0.16 0.12 0.14 0.19 0.23 0.28 0.37 0.48 0.71 0.85 0.76 0.76 0.85 0.93 0.98 1.00 1.12 1.03 0.87 0.80 0.74 0.68 0.62 0.62 0.62 0.63 0.70 0.84 0.98 1.10 1.19 1.22
0.10 0.10 0.11 0.14 0.16 0.17 0.26 0.45 0.38 0.41 0.32 0.30 0.24 0.25 0.20 0.18 0.18 0.19 0.16 0.16 0.21 0.27 0.32 0.40 0.49 0.65 0.74 0.74 0.79 0.84 0.88 0.91 0.90 0.94 0.99 0.98 0.86 0.76 0.71 0.67 0.64 0.54 0.54 0.65 0.78 0.91 1.06 1.19 1.28